Location: Daybis Observatory
(33.4273°N, 88.8061°W)
Time: 18:52:18
(UTC-06:00)

Daily predictions for brighter satellites

Satellite Brightness Start Highest point End
(mag) Time Altitude Azimuth Time Altitude Azimuth Time Altitude Azimuth
Cosmos 1536 Rocket 3.6 18:11:55 10° N 18:16:24 84° E 18:20:53 10° S
COSMOS 2428 3.6 18:12:23 10° N 18:17:13 28° ENE 18:22:01 10° ESE
Okean 1-7 Rocket 4.5 18:16:49 10° NNE 18:20:44 28° ENE 18:24:34 10° SE
Meteor 2-4 Rocket 4.1 18:18:24 10° N 18:23:27 37° ENE 18:28:22 10° SE
Cosmos 2219 Rocket 3.6 18:21:29 10° NNE 18:25:12 18° ENE 18:28:53 10° E
Cosmos 2360 Rocket 2.2 18:20:04 10° NNW 18:25:45 76° ENE 18:31:24 10° SSE
Tiangong 2 3.3 18:23:44 10° W 18:26:15 23° SW 18:28:45 10° SSE
OAO 3 Rocket 4.2 18:25:04 10° SW 18:29:27 32° SSE 18:33:19 12° E
Cosmos 2219 3.2 18:23:45 10° SSW 18:29:29 76° ESE 18:35:14 10° NNE
Meteor 1-13 Rocket 4.2 18:24:43 10° N 18:30:19 76° E 18:36:01 10° SSE
Atlas Centaur 2 4.0 18:24:44 10° SSW 18:30:45 24° SSE 18:35:47 11° ESE
FREGAT/IRIS 3.0 18:28:27 10° SSE 18:31:23 43° ENE 18:34:20 10° N
Cosmos 2227 Rocket 3.4 18:27:37 10° SSE 18:31:42 21° E 18:35:47 10° NE
Abrixas rocket 4.0 18:30:22 10° W 18:33:19 28° NNW 18:36:17 10° NNE
Cosmos 1300 Rocket 4.0 18:31:45 10° SSW 18:36:07 66° W 18:40:33 10° N
Cosmos 1536 2.7 18:33:26 10° S 18:37:24 74° E 18:41:23 10° N
Helios 1B rocket 3.9 18:35:03 10° NE 18:37:43 16° E 18:40:22 10° SE
Cosmos 1455 Rocket 4.4 18:41:23 10° SE 18:44:24 18° E 18:47:25 10° NE
Cosmos 1340 4.4 18:48:32 10° NNW 18:52:02 37° W 18:55:31 10° SSW
Intercosmos 24 4.3 18:53:50 10° S 18:57:56 75° E 19:03:49 10° N
Resurs 01 Rocket 1.8 18:53:46 10° SSE 18:57:59 47° ENE 19:02:12 10° N
Cosmos 1610 Rocket 4.5 18:57:28 10° SSE 19:03:33 56° E 19:09:34 10° NNE
ATLAS 2A CENTAUR R/B 3.2 19:03:39 10° SW 19:06:13 25° S 19:10:06 15° SE
Cosmos 2327 Rocket 4.5 19:01:54 10° S 19:08:06 88° E 19:14:28 10° N
Resurs 1-3 3.7 19:04:08 10° SSE 19:08:22 51° ENE 19:12:38 10° N
FENGYUN 3A 3.6 19:03:59 10° SSE 19:09:23 83° ENE 19:14:50 10° N
Cosmos 2333 Rocket 2.8 19:06:13 10° N 19:11:27 35° ENE 19:12:59 30° E
GPS 2-04 Rocket1 3.0 19:08:29 10° W 19:12:43 64° N 19:14:12 38° ENE
GEOS 3 Rocket 3.6 19:09:26 10° NNE 19:14:43 90° SE 19:20:01 10° SSW
Genesis I 4.1 19:14:16 10° NW 19:18:04 49° WSW 19:21:43 11° S
SL-19 R/B 4.3 19:13:39 10° SSE 19:19:17 81° ENE 19:25:19 10° NNW
Cosmos 1570 Rocket 4.5 19:14:22 10° NNW 19:19:32 61° WSW 19:24:41 10° S
OTV 4 1.0 19:19:55 10° W 19:22:38 54° NW 19:22:38 54° NW
Cosmos 1892 Rocket 3.5 19:21:00 10° N 19:25:19 59° E 19:26:07 50° SE
Cosmos 1025 Rocket 3.6 19:23:16 10° NNW 19:27:36 59° W 19:31:54 10° S
Cosmos 468 Rocket 4.1 19:22:37 10° N 19:27:46 54° ENE 19:28:51 45° ESE
Spot 2 Rocket 3.5 19:22:57 10° SSE 19:28:00 84° WSW 19:33:06 10° NNW
Skynet4D Del rocket 4.2 19:23:33 10° WSW 19:28:35 39° S 19:29:46 35° SE
USA 229 DEB 3.7 19:23:43 10° NNW 19:30:54 78° ENE 19:35:24 26° SE
USA 229 3.7 19:23:49 10° NNW 19:31:00 77° ENE 19:35:25 26° SE
Cosmos 2082 3.6 19:28:00 10° S 19:33:41 69° ESE 19:37:59 18° NNE
Spot 1 4.3 19:39:07 52° N 19:39:07 52° N 19:42:22 10° N
Hubble Space Telescope 1.6 19:35:24 10° WSW 19:38:56 40° SSW 19:38:56 40° SSW
Cosmos 1544 Rocket 3.9 19:40:08 10° SSW 19:44:24 62° W 19:48:41 10° N
Envisat 4.4 19:47:01 25° NNE 19:47:01 25° NNE 19:49:19 10° N
H-2A R/B 4.0 19:46:09 18° SSW 19:48:30 39° W 19:52:01 10° NNW
ALOS 4.0 19:44:28 10° SSW 19:48:37 32° W 19:52:48 10° NW
Cosmos 405 Rocket 3.2 19:44:47 10° NNW 19:48:31 61° WNW 19:48:31 61° WNW
Cosmos 1814 Rocket 4.2 19:43:45 10° N 19:47:53 52° NNE 19:47:53 52° NNE
CZ-2D R/B 3.9 19:49:36 54° W 19:49:36 54° W 19:53:03 10° NNW
Cosmos 2297 Rocket 2.1 19:49:07 10° SSW 19:54:46 89° WNW 19:56:25 49° NNE
Nadezhda 3 Rocket 3.8 19:50:45 10° N 19:56:57 88° E 19:59:43 36° S
Cosmos 2237 Rocket 2.4 19:51:45 10° NNW 19:56:29 55° NNE 19:56:29 55° NNE
NOSS 0 Rocket 3.8 19:52:06 10° NNW 19:58:16 89° ENE 19:59:13 66° SSE
Meteor 1-12 Rocket 4.5 19:54:27 10° SSW 20:00:26 74° W 20:06:23 10° N
COSMOS 2428 4.2 19:56:23 10° NW 20:01:26 34° WSW 20:06:28 10° SSW
NOSS 3-1 (C) 4.1 19:53:57 10° NNW 20:01:36 58° ENE 20:02:16 56° ENE
Cosmos 2341 Rocket 4.0 19:56:22 10° S 20:02:43 85° W 20:09:08 10° N
Cosmos 2154 Rocket 4.5 19:57:39 10° SSW 20:03:54 61° W 20:10:11 10° N
H-2A R/B 3.7 20:01:58 10° SW 20:42:29 - E 20:06:25 43° SSE
Helios 1A 4.5 20:10:07 33° NW 20:10:07 33° NW 20:12:45 10° NNW
Cosmos 2219 Rocket 2.7 20:04:00 10° NNW 20:09:27 55° WSW 20:10:47 44° SSW
OAO 3 Rocket 4.2 20:07:48 10° WSW 20:11:09 43° WSW 20:11:09 43° WSW
Helios 1B rocket 4.2 20:09:23 10° N 20:13:01 30° WNW 20:16:39 10° SW
Cosmos 2227 Rocket 3.2 20:10:01 10° SW 20:15:21 43° WNW 20:20:36 11° N
Atlas Centaur 2 3.2 20:13:01 10° WSW 20:18:27 41° SSW 20:18:27 41° SSW
BREEZE-M DEB (TANK) 3.8 20:21:53 10° WNW 20:25:26 65° WSW 20:25:26 65° WSW
SL-16 R/B 4.2 20:27:45 10° N 20:29:17 19° N 20:29:17 19° N
Cosmos 2333 Rocket 4.0 20:50:46 10° NW 20:55:05 27° W 20:55:05 27° W
ATLAS 3B CENTAUR R/B 4.4 20:46:58 10° WSW 21:09:41 59° S 21:09:41 59° S
